TimePDT,TemperatureF,Dew PointF,Humidity,Sea Level PressureIn,VisibilityMPH,Wind Direction,Wind SpeedMPH,Gust SpeedMPH,PrecipitationIn,Events,Conditions,WindDirDegrees,DateUTC
12:52 AM,63.0,28.0,27,29.93,10.0,North,8.1,-,N/A,,Clear,350,2013-10-15 07:52:00
1:52 AM,61.0,28.0,29,29.92,10.0,NW,6.9,-,N/A,,Clear,320,2013-10-15 08:52:00
2:52 AM,62.1,28.9,29,29.91,10.0,WNW,3.5,-,N/A,,Clear,290,2013-10-15 09:52:00
3:52 AM,59.0,28.9,32,29.91,10.0,SE,3.5,-,N/A,,Clear,130,2013-10-15 10:52:00
4:52 AM,57.9,30.0,35,29.91,10.0,West,4.6,-,N/A,,Clear,260,2013-10-15 11:52:00
5:52 AM,55.9,28.9,36,29.92,10.0,West,4.6,-,N/A,,Clear,260,2013-10-15 12:52:00
6:52 AM,57.9,30.0,35,29.94,10.0,WNW,4.6,-,N/A,,Clear,290,2013-10-15 13:52:00
7:52 AM,62.1,30.9,31,29.96,10.0,Calm,Calm,-,N/A,,Clear,0,2013-10-15 14:52:00
8:52 AM,64.9,30.9,28,29.97,10.0,WSW,3.5,-,N/A,,Clear,240,2013-10-15 15:52:00
9:52 AM,75.9,30.9,19,29.96,10.0,NNW,12.7,-,N/A,,Clear,340,2013-10-15 16:52:00
10:06 AM,75.2,30.2,19,29.98,10.0,North,12.7,-,N/A,,Clear,350,2013-10-15 17:06:00
10:52 AM,79.0,30.0,17,29.96,10.0,North,15.0,-,N/A,,Clear,350,2013-10-15 17:52:00
11:52 AM,81.0,27.0,14,29.93,10.0,North,15.0,23.0,N/A,,Clear,10,2013-10-15 18:52:00
12:52 PM,84.0,23.0,11,29.90,10.0,North,17.3,28.8,N/A,,Clear,10,2013-10-15 19:52:00
1:52 PM,84.9,23.0,10,29.88,10.0,NNE,19.6,28.8,N/A,,Clear,20,2013-10-15 20:52:00
2:52 PM,84.9,23.0,10,29.87,10.0,North,16.1,20.7,N/A,,Clear,10,2013-10-15 21:52:00
3:52 PM,84.9,24.1,11,29.86,10.0,North,11.5,-,N/A,,Clear,10,2013-10-15 22:52:00
4:52 PM,82.9,24.1,12,29.87,10.0,NNE,13.8,-,N/A,,Clear,20,2013-10-15 23:52:00
5:52 PM,81.0,25.0,13,29.88,10.0,North,15.0,-,N/A,,Clear,360,2013-10-16 00:52:00
6:52 PM,75.9,25.0,15,29.90,10.0,North,9.2,-,N/A,,Clear,10,2013-10-16 01:52:00
7:52 PM,72.0,25.0,17,29.93,10.0,WNW,9.2,-,N/A,,Clear,290,2013-10-16 02:52:00
8:52 PM,73.0,24.1,16,29.94,10.0,NW,15.0,-,N/A,,Clear,320,2013-10-16 03:52:00
9:52 PM,73.0,24.1,16,29.96,10.0,NNW,12.7,-,N/A,,Clear,340,2013-10-16 04:52:00
10:52 PM,70.0,24.1,18,29.96,10.0,NNW,11.5,-,N/A,,Clear,340,2013-10-16 05:52:00
11:52 PM,70.0,25.0,18,29.97,10.0,NNW,12.7,-,N/A,,Clear,330,2013-10-16 06:52:00